Powrót do katalogu

AMAZONIA 1

AktywnyNaukaSSO
NORAD 47699·PAYLOAD·🇧🇷 Brazil

Wystrzelony Feb 28, 2021 z Satish Dhawan Space Centre

Loading…

Następne Przeloty (najbliższe 24 godziny)

TLE

ŚwieżeSource: Space-Track

Epoka: Sep 14, 2026, 11:09 UTC

1 47699U 21015A   26257.46464699  .00000125  00000-0  52602-4 0  9991
2 47699  98.4241 328.8349 0001912 303.2703  56.8303 14.40846046291502

Śledź AMAZONIA 1 w czasie rzeczywistym z AllMySat

Download on the App Store